Address 0x3f478cfb11fb50e0b46328257828c6225a49b550

Overview

Balance:
10.136361254347303061 BNB

Token:
My Name Tag:
Not Available

Txn Hash
Block
From
To
Value [Txn Fee]
0x0265a5237076129f4a458f8704877858b7225d04d0263adf95371acc1b133bd187018402021-05-09 21:36:3637 days 2 hrs ago0x3f478cfb11fb50e0b46328257828c6225a49b550OUT 0x20ec291bb8459b6145317e7126532ce7ece5056f0 BNB0.00059855
0x8cb06ce5b5fc3124dc5ee6c762e5e02c0103da952da9ffecfb2274ea4818047687018162021-05-09 21:35:2437 days 2 hrs ago0x3f478cfb11fb50e0b46328257828c6225a49b550OUT 0xcde540d7eafe93ac5fe6233bee57e1270d3e330f1 BNB0.00123907
0x0d941168e88f4c790af009c5a158bbc98a3bd8324409a06321e4da76f71a26b087017802021-05-09 21:33:3637 days 2 hrs ago0x3f478cfb11fb50e0b46328257828c6225a49b550OUT 0xe02df9e3e622debdd69fb838bb799e3f168902c50 BNB0.00044382
0xc6c1b712ac484f2806481d2615b0ec0c74f5205e64fc2b366eb583c78c2959ce83581732021-04-27 23:05:1049 days 1 hr ago0x3f478cfb11fb50e0b46328257828c6225a49b550OUT 0x62f1008e4a24a70e0fcb5670550c66b917c420e40 BNB0.00127268
0xb92d2383874ee05c9a384681cf153afed65741851366426cbf184a656dffd02283581592021-04-27 23:04:2849 days 1 hr ago0x3f478cfb11fb50e0b46328257828c6225a49b550OUT 0xe02df9e3e622debdd69fb838bb799e3f168902c50 BNB0.0004437
0x3c704209332c90e2e16091c9f6aacdcd8b65ba89039d82f18834bc58e2ba0c6583581442021-04-27 23:03:4349 days 1 hr ago0x3f478cfb11fb50e0b46328257828c6225a49b550OUT 0xe02df9e3e622debdd69fb838bb799e3f168902c50 BNB0.00044382
0xdcc8dae6497d8aeb1b932be15f7e19446a7de405636b7eaa572242ceedaaccf071413452021-03-16 16:06:2591 days 8 hrs ago0x3f478cfb11fb50e0b46328257828c6225a49b550OUT 0x20ec291bb8459b6145317e7126532ce7ece5056f0 BNB0.00128835
0xc0c46348bfd65171b4fb3580b10948a441730c9112d84d5508a4858c92cdd2ea71413162021-03-16 16:04:5891 days 8 hrs ago0x3f478cfb11fb50e0b46328257828c6225a49b550OUT 0x22cbdb1da36b35725d1d75a7784271ee3f869b300 BNB0.0008591
0xe36e2d69ff4ee9b272ebc795d870589cec19ff05fd8816bb2d608dd11cc70ad471413122021-03-16 16:04:4691 days 8 hrs ago0x3f478cfb11fb50e0b46328257828c6225a49b550OUT 0xc3a7736b284ce163c45d92b75da4d4a34847be630 BNB0.00044837
0x38e06c39113f86bb305a4a1e51b4c8a65cfb3216e0b05829dd78705e093ce51b71413052021-03-16 16:04:2591 days 8 hrs ago0x3f478cfb11fb50e0b46328257828c6225a49b550OUT 0xc3a7736b284ce163c45d92b75da4d4a34847be630 BNB0.00050491
0x2f4fc80e4876bd50617e921b89465f5a8fcda22c23b3774d7f389cae8c8c0f8f71412982021-03-16 16:04:0491 days 8 hrs ago0x3f478cfb11fb50e0b46328257828c6225a49b550OUT 0x22cbdb1da36b35725d1d75a7784271ee3f869b300 BNB0.00284165
0xd718d2a0f90d420a489b36281f42829366f324f92f966999d35de446bd7d2f4a71412882021-03-16 16:03:3491 days 8 hrs ago0x3f478cfb11fb50e0b46328257828c6225a49b550OUT 0x22cbdb1da36b35725d1d75a7784271ee3f869b300 BNB0.00195279
0xeb25e92df9c2c56c41678c42fe1045012365ea9950103a3a83f1e7daaaaa552667813902021-03-04 1:09:45103 days 23 hrs ago0x3f478cfb11fb50e0b46328257828c6225a49b550OUT 0x20ec291bb8459b6145317e7126532ce7ece5056f0 BNB0.014316278
0x6c2833167fa4c14784ea294ca7bae9e1d1db25dd12f4f543041b8eccac3d950b67813472021-03-04 1:07:36103 days 23 hrs ago0x3f478cfb11fb50e0b46328257828c6225a49b550OUT 0x20ec291bb8459b6145317e7126532ce7ece5056f0 BNB0.014968408
0xbd2a755040384eaa07c4a80081299d801c86b8dbf7e74b610f7e81d426b38b3067813452021-03-04 1:07:30103 days 23 hrs ago0x3f478cfb11fb50e0b46328257828c6225a49b550OUT 0x4353a4e7ec5836fc798308555e153765fa7ee1b50 BNB0.002915196
0xac3e547bcfbe04836bcc09e513aecd620ba7bd26221cc606ee4e451809e6859867813382021-03-04 1:07:09103 days 23 hrs ago0x3f478cfb11fb50e0b46328257828c6225a49b550OUT 0xcde540d7eafe93ac5fe6233bee57e1270d3e330f0.105159638130647 BNB0.019420962
0x43369607d058d64740153ea518deb2fc69f67f2f803771b8d376516695afdfc167813042021-03-04 1:05:27103 days 23 hrs ago0x3f478cfb11fb50e0b46328257828c6225a49b550OUT 0x09c9177eae955ccfc9ded783c5886086d30621c00 BNB0.00123656
0x7cf17c0816338d5a099f999330adc90bdfd98169b6dad572dce162b3b623865867812982021-03-04 1:05:09103 days 23 hrs ago0x3f478cfb11fb50e0b46328257828c6225a49b550OUT 0xed24fc36d5ee211ea25a80239fb8c4cfd80f12ee0 BNB0.005228877
0x897bfcc1e8b119961d0f1ac0c77225ea4c5afb0fd03b2d8a91a19b9fab032f1767812662021-03-04 1:03:33103 days 23 hrs ago0x3f478cfb11fb50e0b46328257828c6225a49b550OUT 0xcde540d7eafe93ac5fe6233bee57e1270d3e330f0 BNB0.019589467
0x32e0465fc65278556689911b57c831fea676aa06c210c34f2ac63c01ffe2652a67812302021-03-04 1:01:45103 days 23 hrs ago0x3f478cfb11fb50e0b46328257828c6225a49b550OUT 0x66638f4970c2ae63773946906922c07a583b60690 BNB0.003063298
0x267bfd8ec647ed54ccf6e444a7db208ce8821b89eaf4608459c309f844ca166567812272021-03-04 1:01:36103 days 23 hrs ago0x3f478cfb11fb50e0b46328257828c6225a49b550OUT 0x66638f4970c2ae63773946906922c07a583b60690 BNB0.005348098
0x36a8fb9eaa4f9963b8db546e7a3b1f684ad2520669822d374ffc6db0a99e3d3167812162021-03-04 1:01:03103 days 23 hrs ago0x3f478cfb11fb50e0b46328257828c6225a49b550OUT 0x22cbdb1da36b35725d1d75a7784271ee3f869b300 BNB0.021675969
0x1355a53a93960e3ee5a3e7bc812331746cb7926e2ccc25094d061721494b51a567812072021-03-04 1:00:36103 days 23 hrs ago0x3f478cfb11fb50e0b46328257828c6225a49b550OUT 0xcde540d7eafe93ac5fe6233bee57e1270d3e330f0 BNB0.0170588
0x67178545dde37a1cdedb6435d19f7ad5c0f885055e9817384dec4bf1c1c0164867811992021-03-04 1:00:12103 days 23 hrs ago0x3f478cfb11fb50e0b46328257828c6225a49b550OUT 0x6ce8da28e2f864420840cf74474eff5fd80e65b80 BNB0.004137291
0xd8014eb0895de9107b613ef284c38de497e4d3fa73487458613e2c07e8a2a9f667811122021-03-04 0:55:51103 days 23 hrs ago0x3f478cfb11fb50e0b46328257828c6225a49b550OUT 0xd7292499cc94016c4265af49034e58018399151e0 BNB0.007095361
[ Download CSV Export 
Latest 6 internal transactions
Parent Txn Hash Block From To Value
0xd2258a9c8fc05834d58429043bc49b396d0bc7944b1d30efb6a49696d57f4ea065817022021-02-25 1:02:16110 days 23 hrs ago 0xcde540d7eafe93ac5fe6233bee57e1270d3e330f0x3f478cfb11fb50e0b46328257828c6225a49b5500.012215024983748019 BNB
0xf3f5d67ccf216556ce954f91e8ac093b8448a5f2dbb8792351f43413e296726865815782021-02-25 0:56:04110 days 23 hrs ago 0xcde540d7eafe93ac5fe6233bee57e1270d3e330f0x3f478cfb11fb50e0b46328257828c6225a49b5500.01397591208323744 BNB
0x97321ca7a1402bb6b7398c7a74c363eae59b416f8b5ab0b29015553b33f52d7865406262021-02-23 14:48:28112 days 9 hrs ago 0xcde540d7eafe93ac5fe6233bee57e1270d3e330f0x3f478cfb11fb50e0b46328257828c6225a49b5501 wei
0x7f6f34550ea929edd0bc893406f15157d831df85760c3d7f0a5461214858f54f64377402021-02-20 0:40:27115 days 23 hrs ago 0xcde540d7eafe93ac5fe6233bee57e1270d3e330f0x3f478cfb11fb50e0b46328257828c6225a49b5502.244854575456678393 BNB
0xc8dffca7daf695ee7e591a1246ba6b87d7c45cad097d916cb37ca524cc04216b64272692021-02-19 15:48:26116 days 8 hrs ago 0xcde540d7eafe93ac5fe6233bee57e1270d3e330f0x3f478cfb11fb50e0b46328257828c6225a49b5500.777239737414030786 BNB
0x92336010d7a9d4bbc73311a04d74a96e920710b82bc8be3582b3aa104ecaa62764224342021-02-19 11:46:41116 days 12 hrs ago 0xcde540d7eafe93ac5fe6233bee57e1270d3e330f0x3f478cfb11fb50e0b46328257828c6225a49b5501 wei
[ Download CSV Export 
Loading

Contract Name:
0 BNB

Compiler Version
0

Optimization Enabled:
0 BNB

Other Settings:
-NA-
Block Transaction Gas Used Reward
Age Block Fee Address BC Fee Address Voting Power Jailed Incoming
Block Uncle Number Difficulty Gas Used Reward
Loading